contact:dominique.lefevre@mio.osupytheas.fr, maurice.libes@osupytheas.fr, didier.mallarino@osupytheas.fr
Project:EMSO http://www.emso-fr.org/EMSO-France
Depth: 2436.0 m
Title:EMSO Ligure Ouest : Data MII capteur AQUADOPP
Date,Latitude,Longitude,X_East,Y_North,Z_Up,Amplitude_X,Amplitude_Y,Amplitude_Z,Batterie,SoundSpeed,Heading,Pitch,Roll,Pressure,TIS,Speed,Direction
, degrees North, degrees East, m.s-1, m.s-1,m.s-1, 1, 1, 1, Volt, m.s-1, degree, degree, degree, dbar, degree_C, m.s-1, degree
2022-12-06T00:04:03,42.805,6.029,-0.011,-0.003,-0.046,102.0,102.0,101.0,13.3,1505.2,321.6,-0.7,1.8,2471.15,13.28,0.011,254.7
2022-12-06T00:07:03,42.805,6.029,-0.033,0.033,-0.033,102.0,102.0,102.0,13.3,1505.2,326.8,-0.8,1.8,2471.134,13.28,0.046,315.0
2022-12-06T00:10:03,42.805,6.029,-0.017,0.004,-0.054,102.0,102.0,101.0,13.4,1505.2,320.9,-0.8,1.8,2471.116,13.28,0.017,283.2
2022-12-06T00:13:03,42.805,6.029,-0.035,0.006,-0.071,101.0,103.0,100.0,13.4,1505.2,330.5,-0.7,1.8,2471.106,13.28,0.035,279.7
2022-12-06T00:16:03,42.805,6.029,-0.056,0.018,-0.059,102.0,101.0,101.0,13.4,1505.2,326.8,-0.7,1.8,2471.107,13.29,0.058,287.8
2022-12-06T00:19:03,42.805,6.029,-0.009,0.023,-0.033,101.0,101.0,101.0,13.4,1505.2,316.8,-0.7,1.8,2471.109,13.29,0.024,338.6
2022-12-06T00:22:03,42.805,6.029,-0.026,0.054,-0.01,102.0,102.0,101.0,13.4,1505.2,330.6,-0.8,1.8,2471.118,13.29,0.059,334.3
2022-12-06T00:25:03,42.805,6.029,-0.055,0.009,-0.058,100.0,100.0,102.0,13.4,1505.2,321.2,-0.8,1.8,2471.103,13.29,0.055,279.3
2022-12-06T00:28:03,42.805,6.029,-0.019,0.0,-0.036,102.0,102.0,102.0,13.4,1505.2,317.8,-0.8,1.8,2471.083,13.29,0.019,270.0
2022-12-06T00:31:03,42.805,6.029,-0.033,0.016,-0.024,102.0,102.0,101.0,13.4,1505.2,329.2,-0.8,1.8,2471.071,13.29,0.036,295.9
2022-12-06T00:34:03,42.805,6.029,-0.034,0.007,-0.038,101.0,102.0,102.0,13.4,1505.2,335.1,-0.8,1.8,2471.087,13.29,0.034,281.6
2022-12-06T00:37:03,42.805,6.029,-0.022,0.005,-0.045,102.0,102.0,101.0,13.4,1505.2,323.2,-0.7,1.8,2471.058,13.29,0.022,282.8
2022-12-06T00:40:03,42.805,6.029,-0.023,0.007,-0.05,102.0,103.0,102.0,13.4,1505.2,320.1,-0.8,1.8,2471.07,13.29,0.024,286.9
2022-12-06T00:43:03,42.805,6.029,-0.03,0.015,-0.041,102.0,102.0,102.0,13.4,1505.2,328.9,-0.7,1.8,2471.106,13.29,0.033,296.6
2022-12-06T00:46:03,42.805,6.029,-0.029,0.043,-0.016,102.0,103.0,102.0,13.4,1505.2,322.2,-0.7,1.8,2471.046,13.29,0.051,326.0
2022-12-06T00:49:03,42.805,6.029,-0.018,0.006,-0.042,105.0,102.0,102.0,13.4,1505.2,324.6,-0.8,1.8,2471.039,13.29,0.018,288.4
2022-12-06T00:52:02,42.805,6.029,-0.034,0.016,-0.025,101.0,102.0,102.0,13.4,1505.2,320.7,-0.8,1.8,2471.091,13.29,0.037,295.2
2022-12-06T00:55:03,42.805,6.029,-0.004,0.016,-0.025,102.0,103.0,101.0,13.4,1505.2,326.3,-0.8,1.8,2471.086,13.29,0.016,346.0
2022-12-06T00:58:02,42.805,6.029,-0.019,0.001,-0.05,101.0,101.0,102.0,13.4,1505.2,326.0,-0.8,1.8,2471.078,13.29,0.019,273.0
2022-12-06T01:04:02,42.805,6.029,-0.02,0.01,-0.037,104.0,103.0,102.0,13.3,1505.2,322.6,-0.8,1.8,2471.129,13.28,0.022,296.6
2022-12-06T01:07:02,42.805,6.029,-0.007,0.007,-0.03,102.0,101.0,101.0,13.4,1505.2,317.9,-0.8,1.8,2471.098,13.28,0.009,315.0
2022-12-06T01:10:02,42.805,6.029,-0.034,0.016,-0.053,103.0,103.0,101.0,13.3,1505.2,335.6,-0.8,1.8,2471.135,13.28,0.037,295.2
2022-12-06T01:13:02,42.805,6.029,-0.027,0.036,-0.039,102.0,102.0,102.0,13.4,1505.2,336.6,-0.8,1.8,2471.134,13.29,0.045,323.1
2022-12-06T01:16:02,42.805,6.029,-0.026,0.014,-0.025,102.0,101.0,102.0,13.4,1505.2,321.0,-0.7,1.8,2471.109,13.29,0.029,298.3
2022-12-06T01:19:02,42.805,6.029,-0.056,0.02,0.008,102.0,100.0,103.0,13.4,1505.2,319.2,-0.7,1.8,2471.141,13.29,0.059,289.6
2022-12-06T01:22:02,42.805,6.029,-0.067,-0.001,-0.071,101.0,102.0,101.0,13.4,1505.2,317.3,-0.8,1.8,2471.105,13.29,0.067,269.1
2022-12-06T01:25:02,42.805,6.029,-0.038,0.036,-0.026,101.0,102.0,101.0,13.3,1505.2,330.4,-0.7,1.8,2471.166,13.29,0.052,313.5
2022-12-06T01:28:02,42.805,6.029,-0.031,0.009,-0.018,102.0,102.0,101.0,13.4,1505.2,328.7,-0.7,1.8,2471.135,13.29,0.032,286.2
2022-12-06T01:31:02,42.805,6.029,-0.044,-0.013,-0.058,101.0,103.0,101.0,13.3,1505.2,316.4,-0.8,1.8,2471.1,13.29,0.045,253.5
2022-12-06T01:34:02,42.805,6.029,-0.037,0.017,-0.05,101.0,100.0,102.0,13.3,1505.2,323.9,-0.8,1.9,2471.128,13.29,0.04,294.7
2022-12-06T01:37:02,42.805,6.029,-0.062,0.04,-0.018,102.0,101.0,101.0,13.4,1505.2,318.2,-0.8,1.8,2471.13,13.29,0.073,302.8
2022-12-06T01:40:02,42.805,6.029,-0.038,0.012,-0.04,101.0,101.0,101.0,13.4,1505.2,326.3,-0.7,1.8,2471.125,13.29,0.039,287.5
2022-12-06T01:43:02,42.805,6.029,-0.037,0.0,-0.056,102.0,100.0,101.0,13.4,1505.2,322.1,-0.7,1.8,2471.111,13.29,0.037,270.0
2022-12-06T01:46:02,42.805,6.029,-0.042,0.005,-0.04,102.0,101.0,102.0,13.4,1505.2,320.7,-0.7,1.8,2471.103,13.29,0.042,276.8
2022-12-06T01:49:02,42.805,6.029,-0.042,0.028,-0.052,102.0,102.0,100.0,13.4,1505.2,336.8,-0.8,1.8,2471.099,13.29,0.05,303.7
2022-12-06T01:52:02,42.805,6.029,-0.025,0.004,-0.038,101.0,102.0,100.0,13.4,1505.2,329.9,-0.8,1.8,2471.111,13.29,0.025,279.1
2022-12-06T01:55:02,42.805,6.029,-0.025,0.008,-0.038,101.0,101.0,102.0,13.4,1505.2,334.1,-0.7,1.8,2471.139,13.29,0.026,287.7
2022-12-06T01:58:02,42.805,6.029,-0.036,0.005,-0.057,102.0,101.0,101.0,13.4,1505.2,320.2,-0.8,1.8,2471.108,13.29,0.036,277.9
2022-12-06T02:04:02,42.805,6.029,-0.023,0.018,-0.046,101.0,101.0,101.0,13.4,1505.2,326.3,-0.7,1.8,2471.187,13.28,0.029,308.0
2022-12-06T02:07:02,42.805,6.029,-0.02,0.023,-0.024,101.0,100.0,101.0,13.4,1505.2,328.6,-0.7,1.8,2471.167,13.28,0.03,319.0
2022-12-06T02:10:02,42.805,6.029,-0.015,0.011,-0.052,100.0,102.0,101.0,13.4,1505.2,318.6,-0.7,1.8,2471.164,13.28,0.018,306.3
2022-12-06T02:13:03,42.805,6.029,-0.024,-0.006,-0.044,102.0,102.0,101.0,13.4,1505.2,324.5,-0.8,1.8,2471.183,13.28,0.024,256.0
2022-12-06T02:16:02,42.805,6.029,-0.037,0.033,-0.05,101.0,101.0,101.0,13.4,1505.2,330.8,-0.8,1.9,2471.212,13.29,0.049,311.7
2022-12-06T02:19:03,42.805,6.029,-0.021,-0.011,-0.057,102.0,101.0,101.0,13.4,1505.2,317.4,-0.8,1.8,2471.128,13.29,0.023,242.4
2022-12-06T02:22:02,42.805,6.029,-0.032,-0.006,-0.085,102.0,101.0,101.0,13.4,1505.2,333.0,-0.8,1.8,2471.118,13.29,0.032,259.4
2022-12-06T02:25:03,42.805,6.029,-0.034,0.017,-0.037,103.0,101.0,101.0,13.3,1505.2,316.4,-0.8,1.8,2471.154,13.29,0.038,296.6
2022-12-06T02:28:03,42.805,6.029,-0.072,0.027,-0.048,100.0,101.0,102.0,13.4,1505.2,323.2,-0.8,1.8,2471.151,13.29,0.076,290.6
2022-12-06T02:31:03,42.805,6.029,-0.012,0.006,-0.019,101.0,102.0,101.0,13.3,1505.2,321.9,-0.7,1.8,2471.191,13.29,0.013,296.6
2022-12-06T02:34:02,42.805,6.029,-0.046,0.007,-0.052,101.0,101.0,101.0,13.4,1505.2,318.6,-0.8,1.8,2471.16,13.29,0.046,278.7
2022-12-06T02:37:02,42.805,6.029,-0.037,0.018,-0.04,100.0,100.0,102.0,13.4,1505.2,324.4,-0.7,1.8,2471.175,13.29,0.041,295.9
2022-12-06T02:40:03,42.805,6.029,-0.037,0.014,-0.04,102.0,102.0,100.0,13.4,1505.2,337.3,-0.7,1.8,2471.127,13.29,0.039,290.7
2022-12-06T02:43:03,42.805,6.029,-0.039,0.006,-0.037,103.0,101.0,100.0,13.4,1505.2,318.3,-0.8,1.8,2471.156,13.29,0.039,278.7
2022-12-06T02:46:02,42.805,6.029,-0.03,0.03,-0.023,102.0,100.0,102.0,13.4,1505.2,333.4,-0.7,1.8,2471.15,13.29,0.042,315.0
2022-12-06T02:49:03,42.805,6.029,-0.035,0.025,-0.024,101.0,102.0,101.0,13.3,1505.2,323.2,-0.8,1.8,2471.164,13.29,0.043,305.5
2022-12-06T02:52:02,42.805,6.029,-0.008,0.016,-0.045,102.0,102.0,100.0,13.4,1505.2,325.9,-0.8,1.8,2471.205,13.29,0.017,333.4
2022-12-06T02:55:03,42.805,6.029,-0.044,0.013,-0.059,102.0,101.0,101.0,13.4,1505.2,330.0,-0.7,1.8,2471.193,13.29,0.045,286.5
2022-12-06T02:58:02,42.805,6.029,-0.045,0.022,-0.061,100.0,101.0,101.0,13.4,1505.2,331.5,-0.8,1.8,2471.2,13.29,0.05,296.1
2022-12-06T03:04:03,42.805,6.029,-0.02,0.02,-0.036,102.0,100.0,101.0,13.3,1505.2,335.4,-0.8,1.8,2471.166,13.28,0.028,315.0
2022-12-06T03:07:02,42.805,6.029,-0.038,0.019,-0.022,101.0,101.0,102.0,13.4,1505.2,330.1,-0.8,1.8,2471.228,13.28,0.042,296.6
2022-12-06T03:10:03,42.805,6.029,-0.045,0.037,-0.019,101.0,101.0,100.0,13.4,1505.2,333.0,-0.8,1.8,2471.207,13.28,0.058,309.4
2022-12-06T03:13:03,42.805,6.029,-0.054,0.038,-0.043,102.0,101.0,101.0,13.4,1505.2,335.9,-0.7,1.8,2471.217,13.28,0.066,305.1
2022-12-06T03:16:03,42.805,6.029,-0.023,0.014,-0.021,100.0,102.0,101.0,13.4,1505.2,328.0,-0.7,1.8,2471.231,13.29,0.026,301.3
2022-12-06T03:19:03,42.805,6.029,-0.043,0.016,-0.032,103.0,102.0,100.0,13.4,1505.2,329.1,-0.7,1.8,2471.218,13.29,0.045,290.4
2022-12-06T03:22:02,42.805,6.029,-0.024,0.024,-0.021,102.0,102.0,101.0,13.4,1505.2,328.9,-0.8,1.8,2471.197,13.29,0.033,315.0
2022-12-06T03:25:03,42.805,6.029,-0.048,0.029,-0.024,102.0,101.0,101.0,13.3,1505.2,316.9,-0.8,1.8,2471.192,13.29,0.056,301.1
2022-12-06T03:28:03,42.805,6.029,-0.03,0.006,-0.038,102.0,102.0,101.0,13.4,1505.2,329.5,-0.7,1.8,2471.253,13.29,0.03,281.3
2022-12-06T03:31:03,42.805,6.029,-0.034,0.019,-0.025,101.0,101.0,102.0,13.3,1505.2,323.9,-0.8,1.8,2471.205,13.29,0.038,299.2
2022-12-06T03:34:03,42.805,6.029,-0.037,0.014,-0.036,101.0,103.0,101.0,13.3,1505.2,317.3,-0.8,1.8,2471.237,13.29,0.039,290.7
2022-12-06T03:37:02,42.805,6.029,-0.031,0.004,-0.055,102.0,102.0,102.0,13.4,1505.2,334.8,-0.8,1.8,2471.189,13.29,0.031,277.3
2022-12-06T03:40:03,42.805,6.029,-0.038,0.013,-0.05,102.0,101.0,100.0,13.4,1505.2,326.5,-0.8,1.8,2471.236,13.29,0.04,288.9
2022-12-06T03:43:03,42.805,6.029,-0.049,0.019,-0.012,102.0,102.0,101.0,13.4,1505.2,319.6,-0.8,1.8,2471.222,13.29,0.052,291.2
2022-12-06T03:46:03,42.805,6.029,-0.045,0.038,0.016,101.0,101.0,102.0,13.3,1505.2,325.7,-0.8,1.8,2471.227,13.29,0.058,310.2
2022-12-06T03:49:03,42.805,6.029,-0.032,0.019,-0.039,101.0,102.0,101.0,13.4,1505.2,327.2,-0.8,1.9,2471.188,13.29,0.037,300.7
2022-12-06T03:52:02,42.805,6.029,-0.029,0.017,-0.046,102.0,101.0,102.0,13.4,1505.2,323.2,-0.8,1.8,2471.194,13.29,0.033,300.4
2022-12-06T03:55:03,42.805,6.029,-0.051,0.003,-0.038,104.0,101.0,101.0,13.4,1505.2,317.8,-0.8,1.8,2471.189,13.29,0.051,273.4
2022-12-06T03:58:03,42.805,6.029,-0.037,0.021,-0.028,102.0,100.0,102.0,13.4,1505.2,323.5,-0.7,1.8,2471.199,13.29,0.042,299.6
2022-12-06T04:04:02,42.805,6.029,-0.033,0.029,-0.032,102.0,102.0,101.0,13.3,1505.2,333.0,-0.8,1.9,2471.26,13.28,0.043,311.3
2022-12-06T04:07:02,42.805,6.029,-0.037,0.022,-0.03,103.0,102.0,101.0,13.4,1505.2,320.7,-0.8,1.8,2471.289,13.28,0.043,300.7
2022-12-06T04:10:03,42.805,6.029,-0.028,0.01,-0.028,100.0,102.0,102.0,13.4,1505.2,330.1,-0.8,1.8,2471.264,13.28,0.029,289.6
2022-12-06T04:13:03,42.805,6.029,-0.052,0.032,-0.048,102.0,101.0,101.0,13.3,1505.2,328.5,-0.7,1.8,2471.232,13.29,0.061,301.6
2022-12-06T04:16:03,42.805,6.029,-0.046,0.021,-0.053,103.0,101.0,101.0,13.4,1505.2,319.1,-0.8,1.8,2471.243,13.29,0.05,294.5
2022-12-06T04:19:03,42.805,6.029,-0.033,0.01,-0.059,102.0,101.0,102.0,13.4,1505.2,331.0,-0.8,1.8,2471.225,13.29,0.034,286.9
2022-12-06T04:22:02,42.805,6.029,-0.031,0.027,-0.017,102.0,102.0,101.0,13.3,1505.2,333.0,-0.8,1.8,2471.262,13.29,0.041,311.1
2022-12-06T04:25:03,42.805,6.029,-0.034,0.034,-0.028,103.0,102.0,101.0,13.3,1505.2,325.2,-0.8,1.8,2471.214,13.29,0.048,315.0
2022-12-06T04:28:03,42.805,6.029,-0.056,0.018,-0.038,102.0,101.0,101.0,13.4,1505.2,328.3,-0.8,1.8,2471.207,13.29,0.058,287.8
2022-12-06T04:31:03,42.805,6.029,-0.061,0.038,-0.061,101.0,102.0,101.0,13.4,1505.2,334.8,-0.8,1.8,2471.25,13.29,0.071,301.9
2022-12-06T04:34:03,42.805,6.029,-0.022,0.006,-0.052,101.0,101.0,101.0,13.4,1505.2,329.8,-0.7,1.8,2471.238,13.29,0.022,285.3
2022-12-06T04:37:02,42.805,6.029,-0.024,0.022,-0.026,102.0,101.0,101.0,13.4,1505.2,334.5,-0.8,1.8,2471.227,13.29,0.032,312.5
2022-12-06T04:40:03,42.805,6.029,-0.034,0.028,-0.031,102.0,102.0,102.0,13.4,1505.2,329.0,-0.7,1.8,2471.26,13.29,0.044,309.5
2022-12-06T04:43:03,42.805,6.029,-0.027,0.017,-0.016,103.0,102.0,101.0,13.4,1505.2,316.8,-0.8,1.8,2471.237,13.29,0.031,302.2
2022-12-06T04:46:03,42.805,6.029,-0.029,0.006,-0.042,102.0,102.0,101.0,13.4,1505.2,324.6,-0.8,1.8,2471.279,13.29,0.029,281.7
2022-12-06T04:49:03,42.805,6.029,-0.026,0.02,-0.022,102.0,101.0,101.0,13.4,1505.2,329.4,-0.8,1.8,2471.256,13.29,0.032,307.6
2022-12-06T04:52:02,42.805,6.029,-0.046,0.027,-0.02,102.0,101.0,102.0,13.4,1505.2,338.0,-0.8,1.8,2471.272,13.29,0.053,300.4
2022-12-06T04:55:03,42.805,6.029,-0.015,0.038,-0.005,102.0,101.0,101.0,13.4,1505.2,329.8,-0.8,1.8,2471.252,13.29,0.04,338.5
2022-12-06T04:58:03,42.805,6.029,-0.01,0.026,-0.013,101.0,101.0,101.0,13.4,1505.2,325.9,-0.8,1.9,2471.265,13.29,0.027,339.0
2022-12-06T05:04:02,42.805,6.029,-0.042,0.018,-0.035,101.0,102.0,102.0,13.4,1505.2,323.1,-0.8,1.8,2471.323,13.28,0.045,293.2
2022-12-06T05:07:03,42.805,6.029,-0.041,0.008,-0.038,102.0,101.0,101.0,13.3,1505.2,323.5,-0.7,1.8,2471.314,13.28,0.041,281.0
2022-12-06T05:10:03,42.805,6.029,-0.017,0.023,-0.036,102.0,102.0,101.0,13.4,1505.2,323.2,-0.8,1.8,2471.289,13.28,0.028,323.5
2022-12-06T05:13:03,42.805,6.029,-0.039,0.009,-0.032,101.0,101.0,100.0,13.3,1505.2,322.1,-0.7,1.8,2471.297,13.29,0.04,283.0
2022-12-06T05:16:03,42.805,6.029,-0.026,0.014,-0.051,102.0,101.0,102.0,13.4,1505.2,329.9,-0.8,1.8,2471.289,13.29,0.029,298.3
2022-12-06T05:19:03,42.805,6.029,-0.026,0.0,-0.044,103.0,100.0,102.0,13.4,1505.2,323.1,-0.8,1.8,2471.251,13.29,0.026,270.0
2022-12-06T05:22:02,42.805,6.029,-0.032,0.012,-0.057,102.0,102.0,101.0,13.3,1505.2,324.1,-0.8,1.8,2471.274,13.29,0.034,290.6
2022-12-06T05:25:03,42.805,6.029,-0.031,0.017,-0.038,101.0,101.0,101.0,13.4,1505.2,328.7,-0.7,1.8,2471.244,13.29,0.035,298.7
2022-12-06T05:28:03,42.805,6.029,-0.067,0.03,-0.042,101.0,101.0,101.0,13.4,1505.2,328.6,-0.8,1.8,2471.289,13.29,0.073,294.1
2022-12-06T05:31:03,42.805,6.029,-0.017,0.028,-0.023,100.0,102.0,101.0,13.3,1505.2,330.8,-0.8,1.8,2471.295,13.29,0.032,328.7
2022-12-06T05:34:03,42.805,6.029,-0.038,0.024,-0.019,102.0,101.0,102.0,13.3,1505.2,318.1,-0.8,1.8,2471.258,13.29,0.044,302.3
2022-12-06T05:37:02,42.805,6.029,-0.034,0.027,0.006,102.0,102.0,101.0,13.4,1505.2,327.2,-0.8,1.8,2471.319,13.29,0.043,308.5
2022-12-06T05:40:03,42.805,6.029,-0.061,0.045,-0.028,101.0,101.0,101.0,13.3,1505.2,322.1,-0.8,1.8,2471.269,13.29,0.075,306.4
2022-12-06T05:43:03,42.805,6.029,-0.022,0.019,-0.028,102.0,101.0,102.0,13.4,1505.2,327.2,-0.8,1.8,2471.26,13.29,0.029,310.8
2022-12-06T05:46:03,42.805,6.029,-0.02,0.014,-0.028,102.0,102.0,101.0,13.4,1505.2,328.4,-0.8,1.8,2471.311,13.29,0.024,305.0
2022-12-06T05:49:03,42.805,6.029,-0.019,0.032,-0.034,101.0,101.0,101.0,13.4,1505.2,323.2,-0.8,1.8,2471.27,13.29,0.037,329.3
2022-12-06T05:52:03,42.805,6.029,-0.036,0.029,-0.039,102.0,101.0,101.0,13.3,1505.2,321.8,-0.7,1.8,2471.287,13.29,0.046,308.9
2022-12-06T05:55:03,42.805,6.029,-0.041,0.013,-0.044,100.0,102.0,101.0,13.3,1505.2,317.3,-0.8,1.8,2471.285,13.29,0.043,287.6
2022-12-06T05:58:03,42.805,6.029,-0.036,0.0,-0.03,102.0,101.0,101.0,13.4,1505.2,333.0,-0.7,1.8,2471.256,13.29,0.036,270.0
2022-12-06T06:04:02,42.805,6.029,-0.029,0.018,-0.046,102.0,102.0,101.0,13.4,1505.2,334.1,-0.8,1.8,2471.313,13.28,0.034,301.8
2022-12-06T06:07:03,42.805,6.029,-0.042,0.017,-0.035,102.0,102.0,102.0,13.4,1505.2,327.0,-0.8,1.8,2471.315,13.28,0.045,292.0
2022-12-06T06:10:03,42.805,6.029,-0.065,0.024,-0.068,102.0,101.0,101.0,13.4,1505.2,330.4,-0.8,1.8,2471.297,13.29,0.069,290.3
2022-12-06T06:13:03,42.805,6.029,-0.053,0.01,-0.039,102.0,102.0,101.0,13.3,1505.2,324.0,-0.8,1.8,2471.319,13.29,0.053,280.7
2022-12-06T06:16:03,42.805,6.029,-0.033,0.024,-0.041,102.0,102.0,101.0,13.3,1505.2,321.5,-0.7,1.8,2471.281,13.29,0.04,306.0
2022-12-06T06:19:03,42.805,6.029,-0.057,0.02,-0.008,102.0,102.0,101.0,13.4,1505.2,320.1,-0.8,1.8,2471.303,13.29,0.06,289.3
2022-12-06T06:22:03,42.805,6.029,-0.027,0.015,-0.051,102.0,102.0,101.0,13.3,1505.2,321.4,-0.8,1.8,2471.311,13.29,0.03,299.1
2022-12-06T06:25:03,42.805,6.029,-0.048,0.025,-0.028,102.0,102.0,101.0,13.3,1505.2,320.1,-0.8,1.8,2471.271,13.29,0.054,297.5
2022-12-06T06:28:03,42.805,6.029,-0.052,0.017,-0.033,102.0,101.0,102.0,13.4,1505.2,317.0,-0.8,1.8,2471.285,13.29,0.054,288.1
2022-12-06T06:31:03,42.805,6.029,-0.019,0.032,-0.017,102.0,103.0,101.0,13.3,1505.2,323.4,-0.8,1.8,2471.324,13.29,0.037,329.3
2022-12-06T06:34:03,42.805,6.029,-0.015,0.024,-0.015,102.0,102.0,101.0,13.3,1505.2,334.7,-0.8,1.8,2471.29,13.29,0.028,328.0
2022-12-06T06:37:03,42.805,6.029,-0.028,0.01,-0.021,102.0,104.0,102.0,13.3,1505.2,323.4,-0.7,1.8,2471.258,13.29,0.029,289.6
2022-12-06T06:40:03,42.805,6.029,-0.027,0.025,-0.021,102.0,101.0,101.0,13.3,1505.2,318.3,-0.7,1.8,2471.288,13.29,0.036,312.8
2022-12-06T06:43:03,42.805,6.029,0.002,0.021,-0.054,102.0,101.0,101.0,13.3,1505.2,331.3,-0.8,1.8,2471.266,13.29,0.021,5.4
2022-12-06T06:46:03,42.805,6.029,-0.019,0.039,-0.039,101.0,102.0,102.0,13.4,1505.2,328.7,-0.8,1.8,2471.292,13.29,0.043,334.0
2022-12-06T06:49:03,42.805,6.029,-0.036,0.023,-0.023,102.0,101.0,101.0,13.3,1505.2,320.3,-0.7,1.8,2471.248,13.29,0.042,302.6
2022-12-06T06:52:03,42.805,6.029,-0.01,0.0,-0.032,103.0,101.0,101.0,13.4,1505.2,329.0,-0.8,1.8,2471.259,13.29,0.01,270.0
2022-12-06T06:55:03,42.805,6.029,-0.018,0.009,-0.047,102.0,101.0,102.0,13.4,1505.2,332.2,-0.8,1.8,2471.28,13.29,0.02,296.6
2022-12-06T06:58:03,42.805,6.029,-0.018,0.01,-0.037,101.0,103.0,101.0,13.4,1505.2,329.7,-0.8,1.8,2471.255,13.29,0.02,299.1
2022-12-06T07:04:02,42.805,6.029,-0.036,0.044,0.003,102.0,103.0,101.0,13.4,1505.2,327.4,-0.8,1.8,2471.3,13.28,0.056,320.7
2022-12-06T07:07:03,42.805,6.029,-0.049,0.025,-0.028,102.0,102.0,102.0,13.4,1505.2,317.9,-0.8,1.8,2471.299,13.29,0.055,297.0
2022-12-06T07:10:03,42.805,6.029,-0.017,0.02,-0.03,102.0,102.0,101.0,13.3,1505.2,325.0,-0.7,1.8,2471.294,13.29,0.026,319.6
2022-12-06T07:13:03,42.805,6.029,-0.044,0.038,-0.039,103.0,101.0,101.0,13.3,1505.2,327.9,-0.8,1.8,2471.297,13.29,0.058,310.8
2022-12-06T07:16:03,42.805,6.029,-0.019,0.018,-0.039,102.0,101.0,101.0,13.3,1505.2,320.6,-0.8,1.8,2471.273,13.29,0.026,313.5
2022-12-06T07:19:03,42.805,6.029,-0.04,0.022,-0.039,102.0,102.0,102.0,13.4,1505.2,320.5,-0.8,1.8,2471.272,13.29,0.045,298.8
2022-12-06T07:22:03,42.805,6.029,-0.019,0.018,-0.032,103.0,102.0,102.0,13.4,1505.2,324.9,-0.8,1.8,2471.273,13.29,0.026,313.5
2022-12-06T07:25:03,42.805,6.029,-0.029,0.025,-0.036,102.0,103.0,103.0,13.3,1505.2,326.7,-0.8,1.8,2471.283,13.29,0.038,310.8
2022-12-06T07:28:03,42.805,6.029,-0.047,0.019,-0.018,103.0,103.0,102.0,13.4,1505.2,321.4,-0.8,1.8,2471.27,13.29,0.05,292.0
2022-12-06T07:31:03,42.805,6.029,-0.034,0.028,-0.038,102.0,102.0,102.0,13.4,1505.2,331.0,-0.8,1.8,2471.297,13.29,0.044,309.5
2022-12-06T07:34:03,42.805,6.029,-0.034,0.042,-0.038,102.0,102.0,102.0,13.4,1505.2,334.5,-0.7,1.8,2471.277,13.29,0.054,321.0
2022-12-06T07:37:03,42.805,6.029,-0.031,0.017,-0.046,103.0,102.0,101.0,13.3,1505.2,330.6,-0.8,1.8,2471.249,13.29,0.035,298.7
2022-12-06T07:40:03,42.805,6.029,-0.009,0.023,-0.012,102.0,102.0,101.0,13.4,1505.2,332.4,-0.8,1.8,2471.265,13.29,0.024,338.6
2022-12-06T07:43:03,42.805,6.029,-0.035,0.018,-0.041,102.0,102.0,101.0,13.3,1505.2,323.7,-0.8,1.8,2471.243,13.29,0.039,297.2
2022-12-06T07:46:03,42.805,6.029,-0.041,0.018,-0.048,102.0,102.0,102.0,13.4,1505.2,320.1,-0.8,1.8,2471.243,13.29,0.044,293.7
2022-12-06T07:49:02,42.805,6.029,-0.036,0.041,0.006,103.0,102.0,102.0,13.4,1505.2,320.4,-0.7,1.8,2471.231,13.29,0.054,318.7
2022-12-06T07:52:03,42.805,6.029,-0.043,0.021,-0.056,103.0,102.0,101.0,13.4,1505.2,316.4,-0.8,1.8,2471.221,13.29,0.047,296.0
2022-12-06T07:55:03,42.805,6.029,-0.046,0.055,-0.024,103.0,101.0,102.0,13.4,1505.2,326.7,-0.8,1.8,2471.235,13.29,0.071,320.1
2022-12-06T07:58:03,42.805,6.029,-0.035,0.026,-0.028,102.0,102.0,102.0,13.4,1505.2,321.0,-0.7,1.8,2471.249,13.29,0.043,306.6
2022-12-06T08:04:02,42.805,6.029,-0.009,0.025,-0.01,102.0,102.0,102.0,13.3,1505.2,322.3,-0.8,1.8,2471.28,13.28,0.026,340.2
2022-12-06T08:07:03,42.805,6.029,-0.026,0.032,-0.022,102.0,101.0,101.0,13.3,1505.2,322.0,-0.7,1.8,2471.31,13.28,0.041,320.9
2022-12-06T08:10:03,42.805,6.029,-0.039,0.013,-0.026,102.0,102.0,102.0,13.4,1505.2,322.3,-0.8,1.8,2471.243,13.29,0.041,288.4
2022-12-06T08:13:03,42.805,6.029,-0.036,0.007,-0.076,102.0,104.0,102.0,13.4,1505.2,327.2,-0.8,1.8,2471.273,13.29,0.036,281.0
2022-12-06T08:16:03,42.805,6.029,-0.024,0.035,-0.031,102.0,102.0,102.0,13.4,1505.2,326.5,-0.7,1.8,2471.248,13.29,0.042,325.6
2022-12-06T08:19:03,42.805,6.029,-0.064,0.046,-0.022,102.0,102.0,102.0,13.4,1505.2,323.5,-0.8,1.8,2471.285,13.29,0.078,305.7
2022-12-06T08:22:03,42.805,6.029,-0.04,0.017,-0.021,102.0,102.0,102.0,13.4,1505.2,326.5,-0.8,1.8,2471.265,13.29,0.043,293.0
2022-12-06T08:25:03,42.805,6.029,-0.07,0.02,-0.05,102.0,103.0,101.0,13.3,1505.2,316.4,-0.8,1.8,2471.26,13.29,0.072,285.9
2022-12-06T08:28:03,42.805,6.029,-0.01,0.025,0.0,103.0,102.0,102.0,13.3,1505.2,321.5,-0.8,1.8,2471.286,13.29,0.026,338.2
2022-12-06T08:31:03,42.805,6.029,-0.024,0.006,-0.018,102.0,102.0,102.0,13.4,1505.2,326.4,-0.7,1.8,2471.215,13.29,0.024,284.0
2022-12-06T08:34:03,42.805,6.029,-0.019,0.035,-0.003,101.0,103.0,102.0,13.4,1505.2,335.8,-0.8,1.8,2471.261,13.29,0.039,331.5
2022-12-06T08:37:03,42.805,6.029,-0.016,0.027,-0.025,103.0,102.0,102.0,13.4,1505.2,338.0,-0.8,1.8,2471.238,13.29,0.031,329.3
2022-12-06T08:40:03,42.805,6.029,-0.032,0.019,-0.027,102.0,102.0,102.0,13.4,1505.2,331.1,-0.7,1.8,2471.247,13.29,0.037,300.7
2022-12-06T08:43:03,42.805,6.029,-0.032,0.03,-0.042,103.0,102.0,102.0,13.3,1505.2,330.7,-0.8,1.8,2471.29,13.29,0.043,313.1
2022-12-06T08:46:03,42.805,6.029,-0.036,0.017,-0.015,103.0,102.0,101.0,13.4,1505.2,324.0,-0.8,1.8,2471.25,13.29,0.039,295.3
2022-12-06T08:49:03,42.805,6.029,-0.007,0.026,-0.017,103.0,101.0,102.0,13.4,1505.2,336.5,-0.7,1.8,2471.23,13.29,0.026,344.9
2022-12-06T08:52:03,42.805,6.029,-0.022,0.015,-0.022,102.0,102.0,101.0,13.4,1505.2,322.6,-0.8,1.8,2471.246,13.29,0.026,304.3
2022-12-06T08:55:03,42.805,6.029,-0.046,0.019,-0.045,102.0,102.0,101.0,13.4,1505.2,336.9,-0.7,1.8,2471.245,13.29,0.049,292.4
2022-12-06T08:58:03,42.805,6.029,-0.019,0.025,-0.031,102.0,103.0,101.0,13.3,1505.2,330.6,-0.8,1.8,2471.233,13.29,0.031,322.8
2022-12-06T09:04:02,42.805,6.029,-0.03,0.026,0.0,103.0,103.0,102.0,13.4,1505.2,322.2,-0.8,1.8,2471.236,13.28,0.039,310.9
2022-12-06T09:07:03,42.805,6.029,-0.031,0.014,-0.045,103.0,101.0,101.0,13.4,1505.2,326.9,-0.8,1.8,2471.283,13.28,0.034,294.3
2022-12-06T09:10:03,42.805,6.029,-0.016,0.001,-0.067,103.0,102.0,101.0,13.3,1505.2,325.9,-0.8,1.8,2471.261,13.29,0.016,273.6
2022-12-06T09:13:03,42.805,6.029,-0.04,0.007,-0.033,101.0,103.0,102.0,13.4,1505.2,322.4,-0.7,1.9,2471.229,13.29,0.04,279.9
2022-12-06T09:16:03,42.805,6.029,-0.021,0.009,-0.023,103.0,102.0,102.0,13.3,1505.2,329.3,-0.7,1.8,2471.227,13.29,0.022,293.2
2022-12-06T09:19:03,42.805,6.029,-0.022,-0.001,-0.047,102.0,100.0,103.0,13.3,1505.2,317.9,-0.8,1.8,2471.251,13.29,0.022,267.4
2022-12-06T09:22:03,42.805,6.029,-0.038,0.018,-0.07,102.0,102.0,102.0,13.4,1505.2,326.3,-0.7,1.8,2471.212,13.29,0.042,295.3
2022-12-06T09:25:03,42.805,6.029,-0.03,0.02,-0.016,102.0,102.0,102.0,13.3,1505.2,320.1,-0.8,1.8,2471.232,13.29,0.036,303.7
2022-12-06T09:28:03,42.805,6.029,-0.021,0.009,-0.016,102.0,101.0,102.0,13.4,1505.2,321.0,-0.8,1.8,2471.234,13.29,0.022,293.2
2022-12-06T09:31:03,42.805,6.029,-0.036,0.015,-0.066,101.0,102.0,101.0,13.3,1505.2,322.5,-0.8,1.8,2471.206,13.29,0.039,292.6
2022-12-06T09:34:03,42.805,6.029,-0.031,0.029,-0.037,101.0,102.0,101.0,13.4,1505.2,333.0,-0.8,1.8,2471.212,13.29,0.042,313.1
2022-12-06T09:37:03,42.805,6.029,-0.047,0.015,-0.033,100.0,102.0,101.0,13.4,1505.2,335.1,-0.8,1.8,2471.226,13.29,0.049,287.7
2022-12-06T09:40:03,42.805,6.029,-0.018,0.021,-0.057,102.0,102.0,101.0,13.4,1505.2,331.5,-0.8,1.8,2471.199,13.29,0.027,319.4
2022-12-06T09:43:03,42.805,6.029,-0.016,0.017,-0.027,102.0,101.0,101.0,13.4,1505.2,335.9,-0.8,1.8,2471.202,13.29,0.023,316.7
2022-12-06T09:46:03,42.805,6.029,-0.028,0.007,-0.06,102.0,102.0,101.0,13.4,1505.2,319.5,-0.7,1.8,2471.224,13.29,0.028,284.0
2022-12-06T09:49:03,42.805,6.029,-0.058,0.001,-0.05,101.0,101.0,101.0,13.4,1505.2,315.4,-0.7,1.8,2471.2,13.29,0.058,271.0
2022-12-06T09:52:03,42.805,6.029,-0.033,0.004,-0.039,101.0,102.0,102.0,13.3,1505.2,328.4,-0.7,1.8,2471.229,13.29,0.033,276.9